Hourly Weather Lucknow

Today, 29 October, Thursday

Time Temperature Precipitation Wind Pressure Humidity
00:00 +23°C° 0 mm 1 mps 746 mmHg 33%
01:00 +23°C° 0 mm 1 mps 746 mmHg 35%
02:00 +23°C° 0 mm 1 mps 746 mmHg 36%
03:00 +22°C° 0 mm 1 mps 746 mmHg 37%
04:00 +22°C° 0 mm 1 mps 747 mmHg 37%
05:00 +21°C° 0 mm 1 mps 747 mmHg 38%
06:00 +23°C° 0 mm 1 mps 748 mmHg 36%
07:00 +22°C° 0 mm 0 mps 748 mmHg 35%
08:00 +24°C° 0 mm 0 mps 749 mmHg 33%
09:00 +28°C° 0 mm 1 mps 749 mmHg 29%
10:00 +30°C° 0 mm 1 mps 749 mmHg 25%
11:00 +31°C° 0 mm 1 mps 749 mmHg 21%
12:00 +32°C° 0 mm 2 mps 748 mmHg 19%
13:00 +34°C° 0 mm 2 mps 747 mmHg 17%
14:00 +34°C° 0 mm 2 mps 746 mmHg 16%
15:00 +31°C° 0 mm 2 mps 746 mmHg 18%
16:00 +30°C° 0 mm 2 mps 746 mmHg 20%
17:00 +28°C° 0 mm 1 mps 746 mmHg 22%
18:00 +27°C° 0 mm 1 mps 746 mmHg 23%
19:00 +27°C° 0 mm 1 mps 746 mmHg 23%
20:00 +26°C° 0 mm 1 mps 747 mmHg 23%
21:00 +25°C° 0 mm 2 mps 747 mmHg 23%
22:00 +25°C° 0 mm 2 mps 747 mmHg 24%
23:00 +25°C° 0 mm 2 mps 747 mmHg 24%

Tomorrow, 30 October, Friday

Time Temperature Precipitation Wind Pressure Humidity
00:00 +24°C° 0 mm 2 mps 747 mmHg 26%
01:00 +24°C° 0 mm 2 mps 747 mmHg 27%
02:00 +23°C° 0 mm 1 mps 747 mmHg 28%
03:00 +23°C° 0 mm 1 mps 747 mmHg 30%
04:00 +22°C° 0 mm 1 mps 747 mmHg 33%
05:00 +22°C° 0 mm 1 mps 747 mmHg 35%
06:00 +23°C° 0 mm 1 mps 747 mmHg 34%
07:00 +25°C° 0 mm 1 mps 748 mmHg 33%
08:00 +26°C° 0 mm 2 mps 749 mmHg 32%
09:00 +28°C° 0 mm 2 mps 748 mmHg 28%
10:00 +30°C° 0 mm 2 mps 748 mmHg 24%
11:00 +33°C° 0 mm 3 mps 748 mmHg 20%
12:00 +33°C° 0 mm 3 mps 747 mmHg 19%
13:00 +34°C° 0 mm 3 mps 746 mmHg 17%
14:00 +35°C° 0 mm 3 mps 745 mmHg 16%
15:00 +33°C° 0 mm 3 mps 745 mmHg 19%
16:00 +30°C° 0 mm 2 mps 745 mmHg 21%
17:00 +28°C° 0 mm 2 mps 745 mmHg 24%
18:00 +27°C° 0 mm 1 mps 745 mmHg 25%
19:00 +26°C° 0 mm 1 mps 746 mmHg 26%
20:00 +25°C° 0 mm 1 mps 746 mmHg 26%
21:00 +25°C° 0 mm 1 mps 746 mmHg 27%
22:00 +24°C° 0 mm 1 mps 746 mmHg 28%
23:00 +24°C° 0 mm 1 mps 746 mmHg 29%

Day after tomorrow, 31 October, Saturday

Time Temperature Precipitation Wind Pressure Humidity
00:00 +24°C° 0 mm 1 mps 746 mmHg 30%
01:00 +23°C° 0 mm 1 mps 746 mmHg 31%
02:00 +23°C° 0 mm 1 mps 746 mmHg 32%
03:00 +23°C° 0 mm 1 mps 746 mmHg 32%
04:00 +22°C° 0 mm 1 mps 746 mmHg 33%
05:00 +22°C° 0 mm 1 mps 746 mmHg 33%
06:00 +23°C° 0 mm 1 mps 747 mmHg 32%
07:00 +24°C° 0 mm 1 mps 747 mmHg 31%
08:00 +26°C° 0 mm 1 mps 748 mmHg 30%
09:00 +28°C° 0 mm 2 mps 748 mmHg 27%
10:00 +29°C° 0 mm 2 mps 748 mmHg 25%
11:00 +31°C° 0 mm 2 mps 748 mmHg 22%
12:00 +32°C° 0 mm 2 mps 747 mmHg 21%
13:00 +34°C° 0 mm 2 mps 746 mmHg 20%
14:00 +34°C° 0 mm 2 mps 746 mmHg 19%
15:00 +31°C° 0 mm 2 mps 745 mmHg 22%
16:00 +30°C° 0 mm 1 mps 745 mmHg 24%
17:00 +28°C° 0 mm 1 mps 745 mmHg 26%
18:00 +27°C° 0 mm 1 mps 746 mmHg 27%
19:00 +27°C° 0 mm 1 mps 746 mmHg 28%
20:00 +24°C° 0 mm 0 mps 747 mmHg 28%
21:00 +23°C° 0 mm 0 mps 746 mmHg 29%
22:00 +23°C° 0 mm 0 mps 746 mmHg 29%
23:00 +23°C° 0 mm 0 mps 746 mmHg 30%

1 November, Sunday

Time Temperature Precipitation Wind Pressure Humidity
00:00 +22°C° 0 mm 0 mps 746 mmHg 30%
01:00 +22°C° 0 mm 0 mps 746 mmHg 30%
02:00 +22°C° 0 mm 0 mps 746 mmHg 30%
03:00 +23°C° 0 mm 1 mps 746 mmHg 30%
04:00 +23°C° 0 mm 1 mps 746 mmHg 30%
05:00 +23°C° 0 mm 1 mps 746 mmHg 30%
06:00 +24°C° 0 mm 1 mps 747 mmHg 29%
07:00 +25°C° 0 mm 1 mps 748 mmHg 28%
08:00 +26°C° 0 mm 1 mps 748 mmHg 27%
09:00 +28°C° 0 mm 1 mps 748 mmHg 24%
10:00 +30°C° 0 mm 2 mps 748 mmHg 21%
11:00 +32°C° 0 mm 2 mps 748 mmHg 18%
12:00 +32°C° 0 mm 1 mps 747 mmHg 17%
13:00 +33°C° 0 mm 1 mps 747 mmHg 16%
14:00 +34°C° 0 mm 1 mps 746 mmHg 15%
15:00 +32°C° 0 mm 1 mps 746 mmHg 18%
16:00 +30°C° 0 mm 1 mps 746 mmHg 20%
17:00 +28°C° 0 mm 1 mps 745 mmHg 23%
18:00 +28°C° 0 mm 1 mps 746 mmHg 24%
19:00 +27°C° 0 mm 1 mps 746 mmHg 25%
20:00 +26°C° 0 mm 1 mps 746 mmHg 27%
21:00 +26°C° 0 mm 1 mps 746 mmHg 27%
22:00 +25°C° 0 mm 1 mps 746 mmHg 28%
23:00 +25°C° 0 mm 1 mps 746 mmHg 29%

2 November, Monday

Time Temperature Precipitation Wind Pressure Humidity
00:00 +25°C° 0 mm 1 mps 746 mmHg 29%
01:00 +24°C° 0 mm 1 mps 746 mmHg 29%
02:00 +24°C° 0 mm 1 mps 746 mmHg 30%
03:00 +24°C° 0 mm 1 mps 746 mmHg 30%
04:00 +23°C° 0 mm 1 mps 746 mmHg 31%
05:00 +23°C° 0 mm 1 mps 747 mmHg 32%
06:00 +24°C° 0 mm 1 mps 747 mmHg 31%
07:00 +25°C° 0 mm 1 mps 748 mmHg 31%
08:00 +26°C° 0 mm 1 mps 749 mmHg 30%
09:00 +28°C° 0 mm 1 mps 749 mmHg 28%
10:00 +30°C° 0 mm 1 mps 749 mmHg 25%
11:00 +32°C° 0 mm 1 mps 749 mmHg 23%
12:00 +32°C° 0 mm 2 mps 748 mmHg 21%
13:00 +34°C° 0 mm 2 mps 747 mmHg 19%
14:00 +35°C° 0 mm 2 mps 747 mmHg 17%
15:00 +32°C° 0 mm 2 mps 746 mmHg 17%
16:00 +30°C° 0 mm 2 mps 746 mmHg 18%
17:00 +28°C° 0 mm 2 mps 746 mmHg 19%
18:00 +27°C° 0 mm 2 mps 747 mmHg 18%
19:00 +26°C° 0 mm 2 mps 747 mmHg 17%
20:00 +25°C° 0 mm 2 mps 747 mmHg 16%
21:00 +25°C° 0 mm 2 mps 747 mmHg 17%
22:00 +24°C° 0 mm 2 mps 747 mmHg 18%
23:00 +23°C° 0 mm 1 mps 747 mmHg 19%

3 November, Tuesday

Time Temperature Precipitation Wind Pressure Humidity
00:00 +23°C° 0 mm 1 mps 747 mmHg 21%
01:00 +23°C° 0 mm 1 mps 747 mmHg 22%
02:00 +23°C° 0 mm 1 mps 747 mmHg 24%
03:00 +22°C° 0 mm 1 mps 747 mmHg 26%
04:00 +22°C° 0 mm 1 mps 747 mmHg 27%
05:00 +22°C° 0 mm 1 mps 747 mmHg 28%
06:00 +23°C° 0 mm 1 mps 748 mmHg 28%
07:00 +24°C° 0 mm 1 mps 748 mmHg 27%
08:00 +25°C° 0 mm 2 mps 749 mmHg 27%
09:00 +27°C° 0 mm 2 mps 749 mmHg 24%
10:00 +29°C° 0 mm 2 mps 749 mmHg 21%
11:00 +32°C° 0 mm 2 mps 748 mmHg 18%
12:00 +32°C° 0 mm 2 mps 748 mmHg 16%
13:00 +34°C° 0 mm 2 mps 747 mmHg 14%
14:00 +34°C° 0 mm 3 mps 746 mmHg 12%
15:00 +31°C° 0 mm 2 mps 746 mmHg 14%
16:00 +29°C° 0 mm 2 mps 746 mmHg 15%
17:00 +27°C° 0 mm 2 mps 746 mmHg 17%
18:00 +27°C° 0 mm 1 mps 746 mmHg 17%
19:00 +26°C° 0 mm 1 mps 746 mmHg 18%
20:00 +25°C° 0 mm 1 mps 747 mmHg 18%
21:00 +24°C° 0 mm 1 mps 747 mmHg 19%
22:00 +22°C° 0 mm 0 mps 747 mmHg 19%
23:00 +21°C° 0 mm 0 mps 747 mmHg 20%
Show more